Change the Weather History Date:

Monday, September 17, 2012

  Actual Average Record
Temperature  
Mean Temperature 53 °F -  
Max Temperature 58 °F 59 °F 75 °F (2003)
Min Temperature 48 °F 47 °F 39 °F (1998)
Degree Days  
Heating Degree Days 12    
Growing Degree Days 3 (Base 50)    
Moisture  
Dew Point 46 °F    
Average Humidity 80    
Maximum Humidity 93    
Minimum Humidity 63    
Precipitation  
Precipitation 0.00 in 0.09 in - ()
Sea Level Pressure  
Sea Level Pressure 29.77 in    
Wind  
Wind Speed 14 mph ()    
Max Wind Speed 24 mph    
Max Gust Speed -    
Visibility 6.5 miles    
Events Rain    
Averages and records for this station are not official NWS values.
T = Trace of Precipitation, MM = Missing Value Source: Averaged Metar Reports

Daily Weather History Graph

Daily Weather History Graph

Search for Another Location

Airport or City:

Trip Planner

Search our weather history database for the weather conditions in past years. The results will help you decide how hot, cold, wet, or windy it might be!

Date:

Astronomy

Sep. 17, 2012 Rise Set
Actual Time 7:02 AM IST 7:35 PM IST
Civil Twilight 6:27 AM IST 8:10 PM IST
Nautical Twilight 5:45 AM IST 8:51 PM IST
Astronomical Twilight 5:01 AM IST 9:36 PM IST
Moon 8:58 AM IST (9/17) 7:41 PM IST (9/17)
Length of Visible Light 13h 42m
Length of Day
12h 32m
New Moon, 2% of the Moon is Illuminated
Sep 17
New Moon
Sep 22
First Quarter
Sep 30
Full
Oct 8
Last Quarter
Oct 15
New

Hourly Weather History & Observations

Time (IST) Temp. Dew Point Humidity Pressure Visibility Wind Dir Wind Speed Gust Speed Precip Events Conditions
12:00 AM 50.0 °F 44.6 °F 82% 29.83 in 6.2 mi SW 10.4 mph - N/A   Scattered Clouds
12:30 AM 50.0 °F 44.6 °F 82% 29.83 in 6.2 mi SW 11.5 mph - N/A   Mostly Cloudy
1:00 AM 50 °F 45 °F 78% 29.83 in 25 mi WSW 11.2 mph - -   Scattered Clouds
1:00 AM 50.0 °F 44.6 °F 82% 29.83 in 6.2 mi WSW 11.5 mph - N/A   Scattered Clouds
1:30 AM 50.0 °F 44.6 °F 82% 29.80 in 6.2 mi SW 12.7 mph - N/A   Mostly Cloudy
2:00 AM 48.2 °F 44.6 °F 87% 29.80 in 6.2 mi WSW 12.7 mph - N/A   Scattered Clouds
2:30 AM 48.2 °F 44.6 °F 87% 29.80 in 6.2 mi WSW 13.8 mph - N/A   Scattered Clouds
3:00 AM 48.2 °F 44.6 °F 87% 29.80 in 6.2 mi WSW 17.3 mph - N/A   Scattered Clouds
3:30 AM 48.2 °F 44.6 °F 87% 29.80 in 6.2 mi SW 13.8 mph - N/A   Scattered Clouds
4:00 AM 48.2 °F 44.6 °F 87% 29.80 in 6.2 mi SW 12.7 mph - N/A   Partly Cloudy
4:30 AM 48.2 °F 44.6 °F 87% 29.80 in 6.2 mi SW 13.8 mph - N/A   Partly Cloudy
5:00 AM 50.0 °F 44.6 °F 82% 29.77 in 6.2 mi SW 12.7 mph - N/A   Partly Cloudy
5:30 AM 50.0 °F 44.6 °F 82% 29.77 in 6.2 mi SW 13.8 mph - N/A   Mostly Cloudy
6:00 AM 50.0 °F 44.6 °F 82% 29.77 in 6.2 mi SW 13.8 mph - N/A   Mostly Cloudy
6:30 AM 50.0 °F 46.4 °F 87% 29.80 in 6.2 mi WSW 16.1 mph - N/A Rain Light Rain Showers
7:00 AM 49 °F 46 °F 83% 29.80 in 25 mi SW 13.4 mph - - Rain Light Rain Showers
7:30 AM 50.0 °F 46.4 °F 87% 29.77 in 6.2 mi SW 13.8 mph - N/A   Partly Cloudy
8:00 AM 50.0 °F 46.4 °F 87% 29.80 in 6.2 mi SW 15.0 mph - N/A   Scattered Clouds
8:30 AM 50.0 °F 46.4 °F 87% 29.77 in 6.2 mi SW 15.0 mph - N/A   Scattered Clouds
9:00 AM 51.8 °F 48.2 °F 88% 29.77 in 6.2 mi SW 15.0 mph - N/A   Scattered Clouds
9:30 AM 53.6 °F 48.2 °F 82% 29.77 in 6.2 mi SW 15.0 mph - N/A   Mostly Cloudy
10:00 AM 53.6 °F 48.2 °F 82% 29.77 in 6.2 mi WSW 17.3 mph - N/A   Mostly Cloudy
10:30 AM 53.6 °F 48.2 °F 82% 29.77 in 6.2 mi WSW 17.3 mph - N/A   Mostly Cloudy
11:00 AM 55.4 °F 48.2 °F 77% 29.77 in 6.2 mi SW 17.3 mph - N/A   Mostly Cloudy
11:30 AM 53.6 °F 48.2 °F 82% 29.77 in 6.2 mi WSW 18.4 mph - N/A   Mostly Cloudy
12:00 PM 53.6 °F 48.2 °F 82% 29.77 in 6.2 mi SW 16.1 mph - N/A Rain Light Rain Showers
12:30 PM 55.4 °F 50.0 °F 82% 29.77 in 6.2 mi SW 15.0 mph - N/A   Mostly Cloudy
1:00 PM 56 °F 48 °F 68% 29.78 in 19 mi SW 13.4 mph - - Rain Light Rain Showers
1:00 PM 55.4 °F 50.0 °F 82% 29.77 in 6.2 mi SW 12.7 mph - N/A   Mostly Cloudy
1:30 PM 57.2 °F 48.2 °F 72% 29.74 in 6.2 mi SW 23.0 mph - N/A   Mostly Cloudy
2:00 PM 55.4 °F 50.0 °F 82% 29.74 in 6.2 mi WSW 20.7 mph - N/A Rain Light Rain Showers
2:30 PM 57.2 °F 50.0 °F 77% 29.74 in 6.2 mi SW 23.0 mph - N/A   Scattered Clouds
3:00 PM 57.2 °F 48.2 °F 72% 29.74 in 6.2 mi WSW 21.9 mph - N/A   Partly Cloudy
3:30 PM 59.0 °F 46.4 °F 63% 29.71 in 6.2 mi WSW 21.9 mph - N/A   Scattered Clouds
4:00 PM 57.2 °F 48.2 °F 72% 29.74 in 6.2 mi West 24.2 mph - N/A Rain Light Rain Showers
4:30 PM 57.2 °F 46.4 °F 67% 29.71 in 6.2 mi West 21.9 mph - N/A   Scattered Clouds
5:00 PM 57.2 °F 44.6 °F 63% 29.71 in 6.2 mi West 21.9 mph - N/A   Scattered Clouds
5:30 PM 55.4 °F 44.6 °F 67% 29.71 in 6.2 mi WSW 23.0 mph - N/A   Partly Cloudy
6:00 PM 53.6 °F 44.6 °F 72% 29.71 in 6.2 mi WSW 24.2 mph - N/A   Partly Cloudy
6:30 PM 55.4 °F 44.6 °F 67% 29.71 in 6.2 mi WSW 18.4 mph - N/A   Partly Cloudy
7:00 PM 54 °F 46 °F 65% 29.74 in 31 mi WSW 17.9 mph - -   Partly Cloudy
7:00 PM 53.6 °F 44.6 °F 72% 29.71 in 6.2 mi WSW 17.3 mph - N/A   Scattered Clouds
7:30 PM 53.6 °F 44.6 °F 72% 29.74 in 6.2 mi WSW 19.6 mph - N/A   Partly Cloudy
8:00 PM 51.8 °F 44.6 °F 76% 29.74 in 6.2 mi WSW 16.1 mph - N/A   Partly Cloudy
8:30 PM 51.8 °F 46.4 °F 82% 29.74 in 6.2 mi WSW 16.1 mph - N/A   Partly Cloudy
9:00 PM 51.8 °F 46.4 °F 82% 29.74 in 6.2 mi WSW 13.8 mph - N/A   Partly Cloudy
9:30 PM 50.0 °F 46.4 °F 87% 29.77 in 6.2 mi WSW 16.1 mph - N/A   Partly Cloudy
10:00 PM 50.0 °F 46.4 °F 87% 29.77 in 6.2 mi WSW 16.1 mph - N/A   Partly Cloudy
10:30 PM 50.0 °F 46.4 °F 87% 29.77 in 6.2 mi WSW 13.8 mph - N/A   Partly Cloudy
11:00 PM 48.2 °F 46.4 °F 93% 29.77 in 6.2 mi WSW 13.8 mph - N/A   Partly Cloudy
11:30 PM 48.2 °F 46.4 °F 93% 29.77 in 6.2 mi WSW 15.0 mph - N/A   Partly Cloudy